Regional Weather Roundup
Issued by NWS Wakefield, VA

Home | Current Version | Previous Version | Text Only | Print | Product List | Glossary Off
Versions: 1 2 3 4 5 6 7 8 9 10 11 12 13 14 15 16 17 18 19 20 21 22 23 24 25 26 27 28 29 30 31 32 33 34 35 36 37 38 39 40 41 42 43 44 45 46 47 48 49 50

000
ASUS41 KAKQ 302210
RWRAKQ

REGIONAL WEATHER ROUNDUP
NATIONAL WEATHER SERVICE WAKEFIELD VA
500 PM EST FRI JAN 30 2015

Note: "fair" indicates few or no clouds below 12,000 feet with no
significant weather and/or obstructions to visibility. * = Denotes
station may not report precipitation (e.g., rain,snow,etc.),
thunder or fog.

VAZ042-051-052>054-056-302300-
NORTHERN VIRGINIA

CITY           SKY/WX    TMP DP  RH WIND       PRES   REMARKS
WASH NATIONAL  PTCLDY    36  12  37 NW21G29   30.14R WCI  25
DULLES         FAIR      30  11  45 NW36G44   30.14R WCI  14
FORT BELVOIR   CLEAR     33  11  40 W25G32    30.15R WCI  20
QUANTICO       CLEAR     34  11  38 NW21G29   30.17R WCI  22
FREDERICKSBRG* PTCLDY    36  11  35 NW21G33   30.15R WCI  25
STAFFORD*      CLEAR     32   8  35 NW23      30.20R WCI  20
WARRENTON      PTCLDY    33  18  53 NW18G28   30.17R WCI  21
CULPEPER*      CLEAR     34  10  37 NW8G17    30.17R
MANASSAS*      CLEAR     30  16  55 NW26G35   30.15R WCI  16
LEESBURG*      PTCLDY    30  16  55 NW18G31   30.18R WCI  18
WINCHESTER     CLOUDY    30   9  40 NW15G25   30.20R WCI  19
FRONT ROYAL*   FAIR      30  10  43 NW13G24   30.16R WCI  20
LURAY*         MOCLDY    32  14  47 NW15G23   30.19R WCI  22
$$

VAZ048-049-060>072-079>083-302300-
CENTRAL AND SOUTH CENTRAL VIRGINIA

CITY           SKY/WX    TMP DP  RH WIND       PRES   REMARKS
RICHMOND       PTCLDY    39  10  30 NW20G37   30.12R
CHESTERFIELD*  FAIR      39   9  28 NW23G29   30.14R
PETERSBURG*    PTCLDY    41  12  30 NW17G23   30.12R
HANOVER        PTCLDY    37   8  30 NW13G30   30.15R
TAPPAHANNOCK*  PTCLDY    38   6  26 NW12G23   30.11R
QUINTON*       FAIR      38   9  30 NW18G24   30.11R
CHARLOTTSVILLE MOCLDY    33   8  35 NW13G23   30.17R WCI  24
GORDONSVILLE*  FAIR      32   9  38 NW8       30.16R
ORANGE*        PTCLDY    34  10  37 NW15G23   30.19R WCI  24
LOUISA*        CLEAR     36  10  35 NW17G28   30.14R
BUMPASS*       FAIR      35  10  35 NW12G20   30.15R
FARMVILLE*     CLEAR     40   7  25 N8G18     30.15R
CREWE*         FAIR      38   4  24 NW18G30   30.13R
FORT PICKETT*  FAIR      38   8  28 NW16G30   30.13R
CHASE CITY*    FAIR      40  12  31 NW9G24    30.14R
CLARKSVILLE*   FAIR      39  12  33 NW12G22   30.15R
SOUTH HILL*    CLEAR     40  10  29 NW12G21   30.19R
LAWRENCEVILLE* FAIR      41  12  30 NW14G25   30.10R
EMPORIA*       CLOUDY    43  18  36 W14G23    30.11R
$$

VAZ088>098-302300-
SOUTHEAST VIRGINIA

CITY           SKY/WX    TMP DP  RH WIND       PRES   REMARKS
NORFOLK        FAIR      41  23  48 N8        30.04R
VIRGINIA BEACH MOCLDY    41  23  48 N18G29    30.04R
NORFOLK NAVAL  PTCLDY    43  20  39 NW23G31   30.07R
WEST POINT*    CLEAR     41   6  24 NW10G26   30.11R
SALUDA*        FAIR      37  16  41 NW20G33   30.07R
NEWPORT NEWS   CLEAR     42  18  37 N25G32    30.07R
LANGLEY AFB    CLEAR     39  17  41 NW22G31   30.06R
FORT EUSTIS    PTCLDY    40  21  46 N22G31    30.06R
WILLIAMSBURG*    N/A     41  18  38 NW21G31   30.09R
HR EXEC AP*    MOCLDY    41  21  45 NW9       30.08R
FRANKLIN*      CLOUDY    42  18  38 NW8       30.08R
WAKEFIELD      CLOUDY    42  15  33 NW9G25    30.09R
$$

VAZ020-022-025-037-045-302300-
WEST CENTRAL AND SOUTHWEST VIRGINIA

CITY           SKY/WX    TMP DP  RH WIND       PRES   REMARKS
STAUNTON*      MOCLDY    29   9  42 NW20      30.20R WCI  17
WAYNESBORO*    MOCLDY    27   8  43 NW16G29   30.16R WCI  15
HOT SPRINGS VA MOCLDY    17   7  64 W23G32    30.01R WCI  -1
LYNCHBURG      CLEAR     33   7  33 NW10G20   30.18R WCI  25
DANVILLE       CLEAR     39   9  29 N21       30.20R
SOUTH BOSTON*  FAIR      38   7  26 NW17G31   30.17R
MARTINSVILLE   CLEAR     37   6  27 N22G29    30.21R
ROANOKE        PTCLDY    31   9  39 NW14G26   30.24R WCI  21
BLACKSBURG     CLEAR     26   7  45 NW12G20   30.21R WCI  15
DUBLIN*        CLEAR     29  10  43 NW10G20   30.20R WCI  20
MARION*        CLEAR     30  11  44 W12G28    30.21R WCI  20
HILLSVILLE*    CLEAR     27  10  47 NW23G38   30.13R WCI  13
RICHLANDS*     FAIR      27  10  48 NW7G16    30.24S
WISE*          PTCLDY    32  14  47 NW7       30.27S
ABINGDON*      CLEAR     33  15  47 NW9       30.27R
$$

MDZ021>025-VAZ099-100-302300-
SOUTHERN MARYLAND AND THE DELMARVA PENINSULA

CITY           SKY/WX    TMP DP  RH WIND       PRES   REMARKS
PATUXENT RIVER PTCLDY    35  13  40 NW28G38   30.07R WCI  22
BAY BRIDGE APT   N/A     34  14  44 NW25G35   30.08R WCI  21
LEONARDTOWN    PTCLDY    34  12  40 W12G23    30.10R
DOVER          PTCLDY    35  18  49 NW23G30   30.00R WCI  23
GEORGETOWN     MOCLDY    37  17  44 NW12G22   30.01R
EASTON         NOT AVBL
CAMBRIDGE      PTCLDY    36  16  44 NW17G33   30.05R
SALISBURY      CLEAR     38  17  42 NW17G29   30.02R
OCEAN CITY     PTCLDY    36  18  48 NW16G29   30.00R
WALLOPS ISLAND MOCLDY    37  18  46 NW21G36   30.02R
ACCOMACK*      CLEAR     36  19  51 NW21G35   30.04R WCI  24
$$

NCZ012>017-030>032-302300-
NORTH CENTRAL AND EASTERN NORTH CAROLINA

CITY           SKY/WX    TMP DP  RH WIND       PRES   REMARKS
ROANOKE RAPIDS MOCLDY    43  19  39 NW14G21   30.10R
RALEIGH        PTCLDY    44  12  27 NW12G22   30.15R
ELIZABETH CITY MOCLDY    40  28  62 NW9       30.05R
AHOSKIE*       CLOUDY    44  16  31 NW7       30.08R
EDENTON*       CLOUDY    46  22  39 NW10G21   30.05R
CURRITUCK*     MOCLDY    40  28  63 N13       30.06R
KILL DEVIL HLS DRIZZLE   40  29  65 NW9G20    30.04R
MANTEO         CLOUDY    39  28  65 N12G17    30.05R
CAPE HATTERAS  CLOUDY    42  30  62 NW8       30.05R
TARBORO*       FAIR      46  17  30 W15G25    30.11R
GOLDSBORO      MOCLDY    50  23  34 NW18G25   30.05S
WASHINGTON     CLEAR     46  17  32 NW10G21   30.07R
GREENVILLE     CLEAR     46  18  31 NW13G21   30.11R
NEW BERN       CLEAR     49  18  29 NW18G25   30.09R
WILMINGTON     CLEAR     49  20  31 NW15G25   30.11R
$$

VAZ048-302300-
ELSEWHERE

CITY           SKY/WX    TMP DP  RH WIND       PRES   REMARKS
HARRISBURG PA  PTCLDY    26  14  60 NW32G39   30.10R WCI   9
BALTIMORE      PTCLDY    31  12  45 NW25G37   30.10R WCI  17
ANNAPOLIS      PTCLDY    33  14  45 NW18G28   30.09R WCI  22
ANDREWS AFB    CLEAR     32  12  42 NW24G39   30.10R WCI  19
PHILADELPHIA   FLURRIES  35  24  64 NW15G25   30.00R
HENDERSON NC   CLEAR     40   8  26 NW8G22    30.15R
GREENSBORO     PTCLDY    40  10  29 NW18G26   30.17R
ROCKY MOUNT    CLEAR     45  14  28 NW20G29   30.12R
$$

VAZ100-302300-
MARINE

STATION/POSITION TIME  TEMP    WIND        PRES    WAVE   SWELL
                       AIR SEA DIR/SP/G            HT/PER HT/PER
                 (UTC) (F)     (DEG/KT/KT) (MB)    (FT/S) (FT/S)
BRANDYWINE LGT   2200   36 36  330/ 20/ 28 1015.0R
CAPE MAY NJ      2200   36 38              1014.5R
LEWES DE         2200   37 36  320/ 28/ 34 1015.3R
15NM E FENWICK I 2200   36 40              1014.0R   5/ 5
OCEAN-CITY-INLET 2200   38 38  330/ 18/ 26 1015.1R
WACHAPREAGUE VA  2200   38 38  280/  7/ 14 1016.9R
THOMAS POINT MD  2200   33 36  310/ 26/ 29 1019.1R
GOOSES REEF MD   2200   35     VRB 23/ 27  1017.2R
COVE POINT MD    2200   35     330/ 19/ 27 1017.9R
SOLOMONS ISLAND  2200      37                N/A
BISHOPS HEAD MD  2200   36 37  320/ 21/ 29   N/A
PINEY POINT MD   2200          330/ 33/ 37   N/A
POTOMAC MD       2200   37     320/ 27/ 31 1017.4R
CAMBRIDGE MD     2200   35 35  300/ 22/ 28 1017.7R
LEWISETTA VA     2200   36 37  330/ 18/ 27 1018.8R
RAPPAHANNOCK LGT 2200          320/ 32/ 34 1017.8R
STINGRAY PT      2200   39     320/ 23/ 29 1018.2R
YORK RVR RNG VA  2200   40     340/ 25/ 31 1017.0R
YORKTOWN VA      2200   40 39  330/ 22/ 26 1017.7R
JAMESTOWN VA     2200   39     350/ 21/ 29   N/A
DOMINION TERM VA 2200   41      40/  4/ 10 1017.4R
KIPTOPEKE VA     2200      44  340/ 30/ 39   N/A
CHES BAY BRIDGE  2200   40 40  330/ 22/ 27 1016.9R
CAPE HENRY VA    2200   39     320/ 23/ 26 1016.0R
CHESAPEAKE LGHT  2100   39     330/ 23/ 25 1016.9R
WILLOUBY STN VA  2200   40     340/ 24/ 28 1017.9R
S CRANEY ISL VA  2200          350/ 15/ 20 1017.1R
CAPE HENRY BUOY  2200      42                N/A     5/ 5
1ST LANDING BUOY 2200   40     330/ 23/ 27 1016.9R
CAPE CHARLES BUO 2200      41                N/A     4/ 5   2/11
OFFSHORE WE BUOY 2200      43                N/A     6/ 6   2/10
64NM E OF VA BCH 2200   42 49  320/ 27/ 35 1015.0R   9/ 6   2/15
DUCK PIER NC     2200   39 44  350/ 14/ 22 1016.4R
44100 DUCK FRF   2200      45                N/A     6/ 6
44056 DUCK FRF   2200      43                N/A     5/ 6
OREGON INLET NC  2200   41 42  340/ 11/ 14 1017.2R
HATTERAS NC      2200   44 46  330/ 14/ 15 1017.8R



USA.gov is the U.S. government's official web portal to all federal, state and local government web resources and services.